Find Starlink 5732

NORAD ID: 55572 Int'l Des: 2023-020 Owner: SPXS Country: US Constellation: starlink operational
LEOCIRCULAR

当前视图

正在加载3D地球...

About Starlink 5732

Starlink 5732 (NORAD 55572) is a starlink constellation satellite (v1.5) launched Feb 12, 2023 by SPXS of US. It operates in LEO, CIRCULAR orbit with a mass of 305.00 kg.

关于 Starlink 5732

正在加载描述...

即将过境

Passes for default location (London). Set your location on the main map for personalized predictions.

高度历史

Loading altitude history...

两行轨道根数

1 55572U 23020D 26171.02154404 .00000273 00000-0 19439-4 0 9990
2 55572 43.0015 150.6531 0001210 261.3741 98.6973 15.27578087184520
Epoch: Jun 20, 2026 • Age: 19 hours

当前状态

高度 491.3 km
速度 7.62 km/s
星下点 -32.26°S, 91.91°W
发射日期 Feb 12, 2023
运行时间 3.3 years
类型 internet

技术详情

分类 Payload
质量 305.00 kg
干质量 290.00 kg
总质量 305.00 kg
长度 0.20 m
直径 2.80 m
跨度 9.00 m
形状 Box + pan
制造商 SPXS
平台类型 Starlink
阶段状态 In Orbit
所有者/国家 SPXS/US

Most Searched